EA3EH-1 Weather Reports


Display with metric or nautical units.
time (UTC)temp
F
wind
direction
speed
MPH
gust
MPH
rain 1hr
in
rain 24hr
in
rain mn
in
humidity
%
barometer
mb
20260504150245 63 211 0.0 0.0 0.04 0.00 0.08 65 1007.0
20260504140445 63 209 3.0 0.0 0.00 0.00 0.04 54 1007.0
20260504130645 70 147 3.0 3.0 0.00 0.00 0.00 33 1007.0
20260504120147 78 44 2.0 3.0 0.00 0.00 0.00 20 1007.0
20260504110144 73 197 0.0 0.0 0.00 0.00 0.00 21 1008.0
20260504100148 70 211 0.0 0.0 0.00 0.00 0.00 22 1008.0
20260504081146 64 215 0.0 3.0 0.00 0.00 0.00 40 1008.0
20260504050148 55 220 4.0 5.0 0.00 0.00 0.00 77 1009.0
20260504045645 55 226 0.0 5.0 0.00 0.00 0.00 78 1009.0
20260504043645 54 124 0.0 0.0 0.00 0.00 0.00 77 1009.0
20260504041645 54 124 0.0 0.0 0.00 0.00 0.00 76 1009.0
20260504040148 54 124 0.0 0.0 0.00 0.00 0.00 75 1009.0
20260504035645 54 124 2.0 3.0 0.00 0.00 0.00 75 1009.0
20260504034646 54 124 0.0 0.0 0.00 0.00 0.00 75 1009.0
20260504033645 54 124 0.0 0.0 0.00 0.00 0.00 74 1009.0
20260504031145 55 124 0.0 0.0 0.00 0.00 0.00 74 1009.0
20260504030645 55 124 0.0 0.0 0.00 0.00 0.00 74 1009.0
20260504030144 55 124 0.0 0.0 0.00 0.00 0.00 74 1009.0
20260504025144 55 124 0.0 0.0 0.00 0.00 0.00 74 1009.0
20260504023645 55 124 0.0 0.0 0.00 0.00 0.00 75 1009.0
20260504023146 55 124 0.0 0.0 0.00 0.00 0.00 76 1009.0
20260504022644 56 124 0.0 0.0 0.00 0.00 0.00 77 1009.0
20260504022145 55 124 0.0 0.0 0.00 0.00 0.00 76 1009.0
20260504021644 55 124 0.0 0.0 0.00 0.00 0.00 75 1009.0
20260504015644 56 124 0.0 0.0 0.00 0.00 0.00 74 1010.0
20260504014645 57 124 0.0 0.0 0.00 0.00 0.00 75 1010.0
20260504012146 56 124 0.0 0.0 0.00 0.00 0.00 75 1010.0
20260504002645 56 124 0.0 0.0 0.00 0.00 0.00 75 1010.0
20260504001646 57 124 0.0 0.0 0.00 0.00 0.00 74 1010.0
20260504001146 57 124 2.0 3.0 0.00 0.00 0.00 73 1010.0
20260504000145 57 124 0.0 0.0 0.00 0.00 0.00 72 1010.0
20260503235644 58 124 0.0 0.0 0.00 0.00 0.00 73 1010.0
20260503235145 57 124 0.0 0.0 0.00 0.00 0.00 73 1010.0
20260503234647 57 124 0.0 0.0 0.00 0.00 0.00 73 1010.0
20260503234145 57 124 0.0 0.0 0.00 0.00 0.00 71 1010.0
20260503233145 58 124 0.0 0.0 0.00 0.00 0.00 70 1011.0
20260503231645 58 124 0.0 0.0 0.00 0.00 0.00 69 1011.0
20260503231145 58 124 0.0 0.0 0.00 0.00 0.00 68 1011.0
20260503225644 58 124 0.0 0.0 0.00 0.00 0.00 68 1011.0
20260503224644 58 124 0.0 0.0 0.00 0.00 0.00 69 1011.0
20260503224144 58 124 0.0 0.0 0.00 0.00 0.00 68 1011.0
20260503223644 58 124 0.0 0.0 0.00 0.00 0.00 69 1011.0
20260503221144 58 124 0.0 0.0 0.00 0.00 0.00 71 1011.0
20260503220645 59 124 0.0 0.0 0.00 0.00 0.00 71 1012.0
20260503215644 59 124 0.0 0.0 0.00 0.00 0.00 70 1012.0
20260503215145 59 124 0.0 0.0 0.00 0.00 0.00 69 1011.0
20260503214144 59 124 0.0 0.0 0.00 0.00 0.00 69 1011.0
20260503213645 59 124 0.0 0.0 0.00 0.00 0.00 69 1011.0
20260503212645 59 124 0.0 0.0 0.00 0.00 0.00 68 1011.0
20260503211144 59 124 0.0 0.0 0.00 0.00 0.00 68 1012.0
20260503205645 59 124 0.0 0.0 0.00 0.00 0.00 68 1012.0
20260503205144 59 124 0.0 0.0 0.00 0.00 0.00 68 1012.0
20260503204644 59 124 0.0 0.0 0.00 0.00 0.00 68 1012.0
20260503201645 59 124 0.0 0.0 0.00 0.00 0.00 71 1011.0
20260503200646 59 124 0.0 0.0 0.00 0.00 0.00 70 1011.0
20260503200144 59 124 0.0 0.0 0.00 0.00 0.00 70 1011.0
20260503195646 59 124 0.0 0.0 0.00 0.00 0.00 69 1011.0
20260503194644 59 124 0.0 0.0 0.00 0.00 0.00 68 1011.0
20260503192144 60 124 0.0 0.0 0.00 0.00 0.00 67 1011.0
20260503191146 60 124 0.0 0.0 0.00 0.00 0.00 68 1011.0
20260503190644 60 124 0.0 0.0 0.00 0.00 0.00 67 1011.0
20260503184644 60 124 0.0 0.0 0.00 0.00 0.00 64 1011.0
20260503184146 60 124 0.0 0.0 0.00 0.00 0.00 65 1011.0
20260503183146 60 124 0.0 0.0 0.00 0.00 0.00 64 1011.0
20260503175144 62 124 0.0 0.0 0.00 0.00 0.00 58 1010.0
20260503173648 63 124 0.0 0.0 0.00 0.00 0.00 55 1010.0